Tiempo cada hora Czyzow

Hoy, 4 Agosto, Miércoles

Tiempo Temperatura Precipitaciones Viento Presión Humedad
00:00 +14°C° 0.3 mm 1 mps 730 mmHg 90%
01:00 +14°C° 0.3 mm 2 mps 730 mmHg 91%
02:00 +14°C° 0 mm 1 mps 730 mmHg 91%
03:00 +14°C° 0 mm 1 mps 730 mmHg 91%
04:00 +13°C° 0 mm 1 mps 730 mmHg 91%
05:00 +15°C° 0 mm 1 mps 730 mmHg 87%
06:00 +16°C° 0 mm 1 mps 730 mmHg 83%
07:00 +18°C° 0 mm 1 mps 730 mmHg 78%
08:00 +18°C° 0.3 mm 2 mps 730 mmHg 77%
09:00 +18°C° 0.3 mm 2 mps 730 mmHg 76%
10:00 +19°C° 0.3 mm 3 mps 731 mmHg 74%
11:00 +18°C° 0.1 mm 2 mps 731 mmHg 76%
12:00 +18°C° 0.1 mm 2 mps 730 mmHg 78%
13:00 +17°C° 0.1 mm 2 mps 730 mmHg 81%
14:00 +18°C° 0 mm 2 mps 730 mmHg 80%
15:00 +18°C° 0 mm 2 mps 730 mmHg 78%
16:00 +19°C° 0 mm 1 mps 730 mmHg 77%
17:00 +18°C° 0 mm 1 mps 730 mmHg 80%
18:00 +18°C° 0 mm 1 mps 730 mmHg 84%
19:00 +16°C° 0 mm 1 mps 730 mmHg 87%
20:00 +15°C° 0 mm 1 mps 730 mmHg 89%
21:00 +15°C° 0 mm 2 mps 730 mmHg 92%
22:00 +14°C° 0 mm 2 mps 730 mmHg 94%
23:00 +14°C° 0 mm 1 mps 729 mmHg 94%

Mañana, 5 Agosto, Jueves

Tiempo Temperatura Precipitaciones Viento Presión Humedad
00:00 +14°C° 0 mm 1 mps 729 mmHg 94%
01:00 +13°C° 0 mm 1 mps 729 mmHg 94%
02:00 +13°C° 0 mm 1 mps 729 mmHg 93%
03:00 +13°C° 0 mm 1 mps 728 mmHg 93%
04:00 +13°C° 0 mm 2 mps 728 mmHg 93%
05:00 +14°C° 0 mm 2 mps 728 mmHg 89%
06:00 +14°C° 0 mm 3 mps 728 mmHg 85%
07:00 +16°C° 0 mm 3 mps 728 mmHg 81%
08:00 +17°C° 0 mm 3 mps 728 mmHg 78%
09:00 +18°C° 0 mm 3 mps 728 mmHg 75%
10:00 +19°C° 0 mm 3 mps 728 mmHg 73%
11:00 +18°C° 0.1 mm 3 mps 727 mmHg 77%
12:00 +18°C° 0.1 mm 2 mps 727 mmHg 81%
13:00 +17°C° 0.1 mm 2 mps 727 mmHg 85%
14:00 +17°C° 0.2 mm 3 mps 726 mmHg 87%
15:00 +17°C° 0.2 mm 3 mps 726 mmHg 89%
16:00 +15°C° 0.2 mm 4 mps 726 mmHg 92%
17:00 +15°C° 0.5 mm 4 mps 725 mmHg 93%
18:00 +15°C° 0.5 mm 4 mps 725 mmHg 95%
19:00 +15°C° 0.5 mm 4 mps 724 mmHg 97%
20:00 +16°C° 2 mm 3 mps 724 mmHg 97%
21:00 +16°C° 2 mm 2 mps 724 mmHg 98%
22:00 +16°C° 2 mm 2 mps 723 mmHg 99%
23:00 +16°C° 1 mm 1 mps 723 mmHg 98%

Pasado mañana, 6 Agosto, Viernes

Tiempo Temperatura Precipitaciones Viento Presión Humedad
00:00 +16°C° 1 mm 1 mps 723 mmHg 98%
01:00 +16°C° 1 mm 1 mps 723 mmHg 98%
02:00 +16°C° 0.2 mm 1 mps 722 mmHg 98%
03:00 +16°C° 0.2 mm 2 mps 722 mmHg 98%
04:00 +16°C° 0.2 mm 2 mps 722 mmHg 98%
05:00 +16°C° 0 mm 2 mps 722 mmHg 97%
06:00 +16°C° 0 mm 2 mps 722 mmHg 96%
07:00 +16°C° 0 mm 2 mps 722 mmHg 96%
08:00 +16°C° 0.1 mm 3 mps 723 mmHg 94%
09:00 +17°C° 0.1 mm 3 mps 723 mmHg 93%
10:00 +17°C° 0.1 mm 3 mps 723 mmHg 91%
11:00 +17°C° 0.1 mm 3 mps 723 mmHg 92%
12:00 +15°C° 0.1 mm 4 mps 724 mmHg 92%
13:00 +15°C° 0.1 mm 4 mps 724 mmHg 92%
14:00 +15°C° 0 mm 4 mps 724 mmHg 91%
15:00 +14°C° 0 mm 4 mps 724 mmHg 90%
16:00 +14°C° 0 mm 4 mps 725 mmHg 89%
17:00 +14°C° 0 mm 3 mps 725 mmHg 88%
18:00 +14°C° 0 mm 3 mps 725 mmHg 87%
19:00 +14°C° 0 mm 3 mps 725 mmHg 86%
20:00 +14°C° 0 mm 2 mps 726 mmHg 88%
21:00 +13°C° 0 mm 2 mps 726 mmHg 91%
22:00 +13°C° 0 mm 2 mps 726 mmHg 93%
23:00 +12°C° 0 mm 2 mps 726 mmHg 94%

7 Agosto, Sábado

Tiempo Temperatura Precipitaciones Viento Presión Humedad
00:00 +12°C° 0 mm 2 mps 726 mmHg 95%
01:00 +10°C° 0 mm 2 mps 726 mmHg 95%
02:00 +10°C° 0 mm 2 mps 727 mmHg 95%
03:00 +11°C° 0 mm 1 mps 727 mmHg 94%
04:00 +11°C° 0 mm 1 mps 727 mmHg 94%
05:00 +13°C° 0 mm 1 mps 727 mmHg 88%
06:00 +14°C° 0 mm 1 mps 728 mmHg 82%
07:00 +16°C° 0 mm 2 mps 728 mmHg 76%
08:00 +18°C° 0 mm 2 mps 728 mmHg 72%
09:00 +20°C° 0 mm 2 mps 728 mmHg 67%
10:00 +21°C° 0 mm 2 mps 728 mmHg 62%
11:00 +23°C° 0 mm 2 mps 728 mmHg 59%
12:00 +25°C° 0 mm 3 mps 728 mmHg 55%
13:00 +26°C° 0 mm 3 mps 728 mmHg 52%
14:00 +26°C° 0 mm 2 mps 728 mmHg 52%
15:00 +26°C° 0 mm 2 mps 728 mmHg 52%
16:00 +26°C° 0 mm 2 mps 728 mmHg 52%
17:00 +24°C° 0 mm 2 mps 728 mmHg 58%
18:00 +23°C° 0 mm 2 mps 728 mmHg 64%
19:00 +20°C° 0 mm 2 mps 728 mmHg 70%
20:00 +20°C° 0 mm 2 mps 728 mmHg 72%
21:00 +19°C° 0 mm 3 mps 728 mmHg 73%
22:00 +18°C° 0 mm 3 mps 728 mmHg 75%
23:00 +18°C° 0 mm 3 mps 728 mmHg 77%

8 Agosto, Domingo

Tiempo Temperatura Precipitaciones Viento Presión Humedad
00:00 +17°C° 0 mm 3 mps 728 mmHg 78%
01:00 +17°C° 0 mm 3 mps 728 mmHg 80%
02:00 +17°C° 0 mm 3 mps 728 mmHg 80%
03:00 +17°C° 0 mm 3 mps 728 mmHg 79%
04:00 +16°C° 0 mm 3 mps 727 mmHg 79%
05:00 +17°C° 0 mm 3 mps 728 mmHg 76%
06:00 +18°C° 0 mm 3 mps 728 mmHg 74%
07:00 +19°C° 0 mm 2 mps 728 mmHg 71%
08:00 +19°C° 0 mm 3 mps 729 mmHg 72%
09:00 +19°C° 0 mm 3 mps 729 mmHg 73%
10:00 +20°C° 0 mm 3 mps 730 mmHg 74%
11:00 +21°C° 0 mm 3 mps 730 mmHg 69%
12:00 +24°C° 0 mm 3 mps 731 mmHg 63%
13:00 +26°C° 0 mm 3 mps 731 mmHg 58%
14:00 +26°C° 0 mm 3 mps 731 mmHg 58%
15:00 +25°C° 0 mm 3 mps 732 mmHg 57%
16:00 +25°C° 0 mm 3 mps 732 mmHg 57%
17:00 +24°C° 0 mm 2 mps 732 mmHg 62%
18:00 +22°C° 0 mm 1 mps 732 mmHg 67%
19:00 +21°C° 0 mm 1 mps 732 mmHg 72%
20:00 +20°C° 0 mm 1 mps 732 mmHg 74%
21:00 +20°C° 0 mm 1 mps 733 mmHg 75%
22:00 +19°C° 0 mm 1 mps 733 mmHg 76%
23:00 +17°C° 0 mm 0 mps 733 mmHg 78%

9 Agosto, Lunes

Tiempo Temperatura Precipitaciones Viento Presión Humedad
00:00 +16°C° 0 mm 0 mps 733 mmHg 80%
01:00 +16°C° 0 mm 0 mps 733 mmHg 82%
02:00 +16°C° 0 mm 0 mps 733 mmHg 83%
03:00 +16°C° 0 mm 0 mps 733 mmHg 84%
04:00 +16°C° 0 mm 0 mps 733 mmHg 85%
05:00 +17°C° 0 mm 0 mps 734 mmHg 82%
06:00 +17°C° 0 mm 0 mps 734 mmHg 80%
07:00 +20°C° 0 mm 1 mps 734 mmHg 77%
08:00 +22°C° 0 mm 1 mps 734 mmHg 70%
09:00 +24°C° 0 mm 1 mps 735 mmHg 62%
10:00 +26°C° 0 mm 1 mps 735 mmHg 54%
11:00 +26°C° 0 mm 1 mps 735 mmHg 53%
12:00 +26°C° 0 mm 1 mps 735 mmHg 52%
13:00 +27°C° 0 mm 1 mps 734 mmHg 51%
14:00 +26°C° 0 mm 1 mps 734 mmHg 52%
15:00 +26°C° 0 mm 1 mps 734 mmHg 54%
16:00 +26°C° 0 mm 1 mps 734 mmHg 56%
17:00 +25°C° 0 mm 1 mps 734 mmHg 58%
18:00 +24°C° 0 mm 1 mps 734 mmHg 61%
19:00 +23°C° 0 mm 1 mps 734 mmHg 63%
20:00 +22°C° 0 mm 1 mps 733 mmHg 64%
21:00 +22°C° 0 mm 1 mps 733 mmHg 65%
22:00 +21°C° 0 mm 1 mps 733 mmHg 66%
23:00 +21°C° 0 mm 1 mps 733 mmHg 70%
Mostrar más

Necesitamos Su Consentimiento

Meteoprog y nuestros Proveedores de Servicios pueden almacenar y acceder a sus datos personales como cookies, identificadores de dispositivo u otras tecnologías similares de su dispositivo y procesar dichos datos para personalizar contenido y anuncios, además de ofrecer funciones de redes sociales y analizar el tráfico.

  • Almacenar y/o acceder a información en su dispositivo

    Se puede almacenar o acceder a cookies, identificadores de dispositivo u otra información de su dispositivo para los fines anteriormente indicados.

  • Anuncios y contenido personalizados, medición de anuncios y contenido, percepciones del público, y desarrollo de productos

    Los anuncios y el contenido pueden personalizarse en base a su perfil. Se pueden añadir más datos para personalizar mejor los anuncios y contenidos. Se puede medir el rendimiento de los anuncios y contenidos. Se puede obtener la percepción sobre el público que ha visto los anuncios y contenidos. Dichos datos pueden usarse para desarrollar o mejorar la experiencia del usuario, sistemas y software.

Al hacer clic en ‘Estoy De Acuerdo’ usted permitirá el uso de las cookies, identificadores de dispositivo, balizas web u otras tecnologías similares indicadas. Su configuración puede cambiarse desde el navegador de su dispositivo.

Para ciertos fines, los intereses legítimos pueden ser considerados por encima del consentimiento. Puede leer más sobre ello en nuestra Política de Privacidad y Cookies.